Location: Poklaw In
(23.1015°N, 94.0501°E)
Time: 06:41:50
(UTC+00:00)

Daily predictions for brighter satellites

Satellite Brightness Start Highest point End
(mag) Time Altitude Azimuth Time Altitude Azimuth Time Altitude Azimuth
SL-4 R/B 2.1 12:36:00 10° SSW 12:40:19 61° SE 12:44:19 10° NE
CZ-2D R/B 4.3 12:43:20 10° S 12:47:00 49° W 12:50:40 10° NNW
USA 267 3.3 12:40:48 10° NE 12:47:22 81° SE 12:53:55 10° SW
Cosmos 1340 4.5 12:44:28 10° SSW 12:47:57 36° W 12:51:27 10° NNW
Atlas 2A Centaur Rocket 4.4 12:42:53 10° WSW 12:48:38 78° SSE 13:29:09 10° ENE
Cosmos 2366 rocket 4.4 12:44:12 10° SSE 12:50:03 42° E 12:55:51 10° NNE
Cosmos 1110 Rocket 4.0 12:45:31 10° NNW 12:50:50 86° ENE 12:56:07 10° SSE
Cosmos 1606 2.8 12:50:56 10° N 12:54:41 53° E 12:58:22 10° SSE
COSMOS 2406 3.7 12:52:55 10° S 12:58:11 39° ESE 13:03:28 10° NE
YAOGAN 1 3.5 12:56:02 10° S 13:00:13 51° W 13:04:25 10° NNW
Cosmos 1900 4.4 12:56:41 10° SSW 13:01:33 85° WNW 13:06:30 10° NNE
Cosmos 2341 Rocket 4.2 12:55:25 10° S 13:01:36 79° W 13:07:51 10° N
SL-8 Rocket 3.9 12:56:22 10° S 13:02:29 74° E 13:08:39 10° N
FUSE 4.0 12:58:22 10° WSW 13:03:45 73° SSE 13:09:06 10° E
Cosmos 1151 Rocket 3.1 13:01:27 10° N 13:05:36 51° E 13:09:46 10° SSE
Cosmos 1302 Rocket 4.3 13:01:36 10° N 13:06:37 48° ENE 13:11:39 10° SSE
Cosmos 1633 2.4 13:04:32 10° S 13:08:04 80° E 13:11:35 10° N
ISS -3.8 13:08:06 10° NW 13:11:28 87° NE 13:13:51 18° SE
CSL-04 Rocket 4.0 13:08:42 10° S 13:13:58 65° WSW 13:19:13 10° NNW
Cosmos 2082 Rocket 3.5 13:12:05 14° SE 13:14:22 18° E 13:18:04 10° ENE
CZ-2C R/B 3.1 13:10:38 10° S 13:15:39 77° WSW 13:20:28 10° NNW
Cosmos 1408 Rocket 4.2 13:11:53 10° SSW 13:16:15 59° W 13:20:39 10° N
FALCON 9 DEB 3.1 13:14:42 10° SW 13:18:10 85° WNW 13:21:40 10° NE
Iridium 2 3.6 13:15:13 10° N 13:18:58 89° W 13:22:42 10° S
Gbstr 26 Del rocket 4.2 13:16:36 10° N 13:19:31 21° NE 13:20:59 17° ENE
Cosmos 1743 Rocket 3.5 13:15:35 10° S 13:19:55 67° E 13:24:20 10° NNE
VEP-3 3.0 13:23:51 10° W 13:29:09 77° S 13:36:06 20° ESE
Sich 1 4.2 13:30:06 23° E 13:30:06 23° E 13:33:27 10° NE
CZ-2C R/B 3.9 13:25:53 10° NNE 13:30:16 47° E 13:34:33 10° S
Ariane Rocket 3.0 13:27:00 15° SSE 13:31:11 63° ENE 13:36:11 10° N
ARGOS 3.1 13:25:58 10° SSE 13:31:23 90° NW 13:36:47 10° NNW
Cosmos 2218 Rocket 4.2 13:26:26 10° S 13:32:36 72° W 13:38:45 10° N
Cosmos 1862 3.6 13:32:21 25° SSE 13:34:16 44° E 13:38:06 10° NNE
Cosmos 292 Rocket 3.7 13:31:14 10° NNW 13:35:58 84° WSW 13:39:39 17° S
Cosmos 407 Rocket 3.8 13:31:50 10° S 13:36:51 43° ESE 13:41:53 10° NNE
SJ-6B 3.0 13:35:22 29° SE 13:37:13 56° ENE 13:41:12 10° N
Cosmos 1500 Rocket 3.8 13:35:10 10° SSW 13:39:26 69° W 13:43:44 10° N
Cosmos 1339 Rocket 4.4 13:34:19 10° N 13:40:40 82° E 13:46:51 10° S
Resurs 1-3 4.5 13:43:55 30° ENE 13:43:59 30° ENE 13:47:50 10° NNE
CZ-2C R/B 3.0 13:40:05 10° N 13:45:13 64° WNW 13:50:24 10° SSW
GPS 2-17 Rocket1 3.0 13:41:03 10° W 13:45:26 60° S 13:46:27 46° SE
Cosmos 1992 Rocket 4.4 13:40:51 10° N 13:45:45 41° ENE 13:46:55 36° ESE
MOS 1 4.2 13:42:36 21° SSE 13:46:24 73° ENE 13:52:01 10° N
H-2A R/B 3.3 13:43:42 10° S 13:48:39 41° W 13:53:29 10° NNW
Sakura Rocket 3.4 13:44:57 10° WNW 13:51:25 89° NNE 13:53:02 44° ESE
Skynet4D Del rocket 3.7 13:56:15 10° W 14:01:39 72° N 14:04:15 33° ENE
Cosmos 1805 Rocket 3.5 14:00:33 34° S 14:02:28 86° W 14:06:54 10° N
Cosmos 1140 Rocket 3.4 14:01:42 42° SSE 14:03:18 62° ESE 14:08:28 10° NNE
MetOp-A 4.0 14:02:11 37° SSE 14:04:23 88° E 14:09:45 10° NNW
Yuri Rocket 3.8 14:00:54 10° SW 14:03:41 35° SSW 14:03:41 35° SSW
Cosmos 1833 Rocket 2.9 13:59:51 10° SSW 14:05:24 69° WNW 14:11:00 10° NNE
USA 186 4.1 14:07:26 15° W 14:07:26 15° W 14:08:43 10° WNW
Cosmos 1023 Rocket 4.3 14:05:37 34° S 14:07:54 73° ESE 14:13:10 10° NNE
CZ-3A R/B 3.9 13:33:46 10° W 14:09:18 88° N 14:13:56 36° E
ATLAS 5 CENTAUR R/B 3.6 14:05:21 10° N 14:10:43 28° ENE 14:11:05 28° ENE
SPOT 3 Rocket 3.4 14:12:14 64° ESE 14:12:44 69° ENE 14:17:54 10° N
Delta 202 3.7 14:08:06 10° WSW 14:13:59 54° S 14:14:11 54° S
NOSS 3-2 (A) 3.6 14:16:00 44° ENE 14:16:00 44° ENE 14:20:09 10° NE
Cosmos 1727 Rocket 3.9 14:09:07 10° N 14:15:29 88° W 14:18:06 38° S
Cosmos 1867 3.4 14:10:42 10° SSW 14:16:06 86° ESE 14:21:33 10° NNE
Cosmos 1782 4.0 14:13:10 10° NNW 14:16:56 40° W 14:17:56 34° SW
Cosmos 1697 Rocket 4.5 14:13:45 10° NNE 14:16:06 17° NE 14:16:06 17° NE
Cosmos 1934 Rocket 4.1 14:18:33 54° E 14:18:33 54° E 14:24:40 10° NNE
Aureole 1 Rocket 3.8 14:26:07 68° SSE 14:26:48 75° ESE 14:34:03 10° NNE
Cosmos 972 Rocket 4.0 14:24:27 10° NNW 14:28:48 71° NNW 14:28:48 71° NNW
Cosmos 1656 4.2 14:24:49 10° N 14:29:09 45° NE 14:29:09 45° NE
Cosmos 1821 Rocket 4.3 14:27:05 20° SSW 14:31:23 61° W 14:37:27 10° N
Cosmos 2228 Rocket 3.8 14:27:27 10° NNW 14:31:35 49° W 14:31:35 49° W
Palapa 6 Rocket 4.3 14:24:20 10° W 14:32:25 81° S 14:33:47 64° ESE
Resurs 01 Rocket 2.7 14:34:49 39° N 14:34:49 39° N 14:37:36 10° N
Cosmos 2082 Rocket 3.4 14:53:19 13° SW 14:58:03 39° WNW 15:03:21 10° N
USA 238 DEB 4.3 15:03:41 10° SW 15:09:58 48° WNW 15:16:25 10° NNE
USA 238 4.3 15:03:48 10° SW 15:10:04 49° WNW 15:16:31 10° NNE
Centaur D-1AR AC-40 3.3 14:57:52 10° W 15:11:54 57° WSW 15:11:54 57° WSW
CENTAUR R/B 4.5 15:43:32 19° N 15:43:32 19° N 15:45:25 10° NNE
Cosmos 1980 Rocket 4.4 15:40:16 10° N 15:41:47 19° N 15:41:47 19° N
ATLAS 5 CENTAUR R/B 4.2 15:49:23 10° NW 15:52:39 28° WNW 15:52:39 28° WNW
ATLAS 3B CENTAUR R/B 4.0 19:06:43 10° W 19:26:50 71° N 19:34:57 10° ENE
IDEFIX/ARIANE 42P 4.1 20:18:53 10° NNE 20:21:58 32° NE 20:21:58 32° NE
ADEOS II 4.3 20:30:24 10° N 20:31:40 17° NNW 20:31:40 17° NNW
SL-16 R/B 4.2 20:34:36 10° NNW 20:36:08 19° NNW 20:36:08 19° NNW
Cosmos 2263 Rocket 3.4 20:46:46 33° NNW 20:46:46 33° NNW 20:50:00 10° N
Aurora 2 Rocket 4.3 20:45:12 67° WSW 20:46:53 85° SSE 20:57:59 10° E
Atlas Centaur 2 2.6 20:52:07 81° S 20:52:16 82° SSE 21:00:25 10° ENE
Cosmos 1809 Rocket 4.3 20:53:43 10° N 20:59:50 90° WNW 20:59:55 88° S
SeaSat 1 2.7 20:58:02 10° NNE 21:02:18 67° NE 21:02:18 67° NE
OAO 2 Rocket 3.5 21:06:49 73° NE 21:06:49 73° NE 21:11:33 10° ENE
ATLAS CENTAUR R/B 2.6 21:07:51 39° NNE 21:07:51 39° NNE 21:10:30 10° NNE
Cosmos 1844 Rocket 3.7 21:08:24 29° SSE 21:10:32 40° ESE 21:15:41 10° NE
Meteosat 1 Rocket2 4.5 21:11:11 35° SE 21:11:11 35° SE 21:14:52 10° E
Meteor 2-21 4.3 21:15:53 10° NNW 21:21:53 66° W 21:22:52 57° SW
PSLV R/B 3.9 21:17:53 10° NNE 21:22:12 62° E 21:22:45 56° SE
CZ-3A R/B 3.7 21:24:08 44° WSW 21:26:42 89° SSE 22:23:43 10° E
Cosmos 1417 Rocket 4.4 21:25:01 43° SSW 21:27:18 79° W 21:33:36 10° N
Cosmos 1300 4.1 21:26:03 27° SE 21:27:24 36° E 21:30:54 10° NNE
Cosmos 2228 2.9 21:28:05 86° WNW 21:28:05 86° WNW 21:32:26 10° N
deb Chang Zheng 4 4.4 21:26:34 10° NNE 21:30:46 47° E 21:32:55 25° SSE
Cosmos 2058 Rocket 4.3 21:28:09 17° SSE 21:31:11 41° E 21:35:24 10° NNE
Cosmos 1703 3.5 21:31:20 10° N 21:35:17 69° E 21:36:40 37° SSE
Delta 7925 Rocket 4.1 21:33:45 42° SW 21:36:12 69° SSE 21:42:06 10° E
Cosmos 2285 Rocket 4.5 21:36:02 37° W 21:36:42 38° WNW 21:42:30 10° N
CBERS 1 LM4 rocket 4.5 21:34:25 10° NNE 21:39:31 87° ESE 21:42:17 29° SSW
NOSS 2-2 (C) 3.2 21:42:48 56° S 21:43:24 70° ESE 21:46:56 10° NNE
CZ-3B R/B 4.5 21:20:06 10° WNW 21:43:57 49° SW 21:51:14 10° SE
Cosmos 1758 Rocket 3.4 21:40:25 10° N 21:44:44 89° E 21:47:54 18° S
Cosmos 1943 3.4 21:39:48 10° NNW 21:45:24 71° ENE 21:50:59 10° SSE
H-2A R/B 1.8 21:46:47 36° S 21:48:21 66° WSW 21:52:25 10° NNW
ATLAS 3B CENTAUR R/B 2.7 21:40:09 11° WNW 21:50:25 72° N 21:55:02 10° E
SL-23 DEB 3.3 21:47:39 10° NW 21:51:47 80° SW 21:54:55 10° SE
CZ-4B R/B 3.8 21:50:06 10° SE 21:52:53 25° ENE 21:55:38 10° NNE
Meteor 1-31 Rocket 4.4 21:51:19 10° NE 21:54:47 32° E 21:58:13 10° SSE
CZ-2C R/B 2.2 21:50:18 10° N 21:54:51 62° WNW 21:57:01 30° SW
ALOS 3.7 21:51:23 10° NNE 21:55:42 37° E 21:59:58 10° SSE
SL-08 ROCKET BODY 4.4 21:52:45 10° N 21:58:47 88° E 22:04:41 10° S
Cosmos 1484 Rocket 4.0 21:55:18 10° NNE 21:58:47 39° E 22:02:17 10° S
CZ-4C R/B 4.4 22:03:41 20° NW 22:03:41 20° NW 22:05:04 10° NW
IDEFIX/ARIANE 42P 4.4 22:00:23 10° NW 22:02:46 14° WNW 22:02:46 14° WNW
GPS 2-15 Rocket1 4.0 22:01:59 29° SW 22:03:10 32° SSW 22:07:34 10° SE
ERS-2 2.2 22:01:56 29° SSW 22:03:26 49° W 22:06:58 10° NNW
GPS 2-18 Rocket1 3.1 22:02:43 41° SW 22:03:37 54° S 22:07:11 10° ESE
Hubble Space Telescope 0.7 22:02:12 36° WSW 22:03:46 86° SSE 22:07:55 10° ENE
ADEOS 3.5 22:00:56 10° N 22:06:09 79° WNW 22:11:18 10° SSW
Cosmos 1825 Rocket 3.5 22:02:10 10° NNW 22:06:25 61° W 22:10:39 10° S
Cosmos 1386 Rocket 4.4 22:01:22 10° N 22:07:23 89° W 22:13:24 10° S
ATLAS 2A CENTAUR R/B 1.0 22:07:14 41° WSW 22:07:52 53° SSW 22:13:36 10° ESE
Cosmos 883 Rocket 4.4 22:03:17 10° S 22:09:26 75° W 22:15:39 10° N
Cosmos 1844 3.8 22:07:39 18° SSW 22:11:57 63° WNW 22:17:41 10° N
CZ-3 Stage 3 4.0 22:07:45 10° WNW 22:12:21 41° N 22:15:20 10° E
Cosmos 1953 Rocket 3.5 22:09:16 10° N 22:13:44 84° W 22:18:11 10° S
Meteor 1-11 4.1 22:08:45 10° N 22:14:27 76° W 22:20:04 10° S
Lacrosse 5 rocket 4.1 22:14:01 10° SSE 22:16:38 15° ESE 22:19:17 10° E
FENGYUN 3A 3.9 22:11:45 10° NNE 22:17:08 72° ESE 22:22:28 10° S
Meteor 2-15 Rocket 4.5 22:12:27 10° SSW 22:18:24 58° W 22:24:22 10° N
Delta 142 3.4 22:15:38 15° WNW 22:19:01 84° NNE 22:23:40 10° ESE
Cosmos 1745 Rocket 4.0 22:16:06 10° NNW 22:22:12 59° W 22:28:14 10° S
IUS-13 SRM-1 1.9 22:26:39 18° WNW 22:27:49 38° N 22:29:47 10° ENE
Cosmos 494 Rocket 4.2 22:26:29 10° N 22:31:40 78° ENE 22:36:51 10° SSE
Chandra Rocket (1) 3.6 22:24:13 12° SW 22:32:29 39° SSE 22:36:03 10° E
Cosmos 2278 Rocket 3.5 22:31:32 10° S 22:36:49 41° ESE 22:42:06 10° NE
SAR-Lupe-4 3.7 22:34:57 10° S 22:38:25 52° W 22:41:53 10° NNW
SJ-12 4.1 22:34:35 10° NNE 22:38:38 74° ESE 22:42:39 10° S
CZ-4B R/B 3.9 22:37:00 10° N 22:40:29 45° WNW 22:44:01 10° SSW
Atlas Centaur 2 3.5 22:34:56 10° W 22:42:24 57° N 22:50:46 10° ENE
SL-4 R/B 2.5 22:43:41 10° WNW 22:46:38 27° SW 22:49:39 10° S
Cosmos 1932 4.5 22:42:55 10° NNW 22:49:15 68° WSW 22:55:25 10° SSE
USA 267 3.3 22:47:13 10° SE 22:53:46 85° SW 23:00:19 10° NW
Cosmos 1844 Rocket 4.2 22:50:45 10° WSW 22:54:25 18° WNW 22:58:07 10° NNW
Spot 2 4.4 22:49:47 10° N 22:54:50 81° WNW 22:59:37 10° SSW
